When you browse on this site, cookies collect data to enhance your experience and personalize the content and advertising you see.
Visit our Privacy Policy to learn more. By continuing to use the site, you agree to this use of cookies and data.
  • In Hungary
  • List of Countries
  • For 7 days
  • Water Temperature
  • Satellite Maps
  • Weather Map
  • News
  • Weather Widgets
  • user-avatar
    Login

    Hourly Weather Balatonkeresztur

    Today, 23 February, Saturday

    Time Temperature Precipitation Wind Pressure Humidity
    00:00 -3°C° 0 mm 7 mps 767 mmHg 46%
    01:00 -4°C° 0 mm 6 mps 768 mmHg 47%
    02:00 -4°C° 0 mm 6 mps 768 mmHg 45%
    03:00 -5°C° 0 mm 6 mps 768 mmHg 43%
    04:00 -5°C° 0 mm 5 mps 768 mmHg 40%
    05:00 -5°C° 0 mm 5 mps 769 mmHg 39%
    06:00 -5°C° 0 mm 5 mps 769 mmHg 38%
    07:00 -5°C° 0 mm 4 mps 770 mmHg 36%
    08:00 -5°C° 0 mm 5 mps 770 mmHg 33%
    09:00 -4°C° 0 mm 5 mps 770 mmHg 30%
    10:00 -2°C° 0 mm 5 mps 770 mmHg 27%
    11:00 -2°C° 0 mm 5 mps 770 mmHg 26%
    12:00 -1°C° 0 mm 5 mps 770 mmHg 24%
    13:00 0°C° 0 mm 4 mps 770 mmHg 23%
    14:00 0°C° 0 mm 4 mps 769 mmHg 24%
    15:00 0°C° 0 mm 4 mps 769 mmHg 25%
    16:00 0°C° 0 mm 4 mps 768 mmHg 26%
    17:00 -1°C° 0 mm 4 mps 769 mmHg 29%
    18:00 -1°C° 0 mm 3 mps 769 mmHg 33%
    19:00 -2°C° 0 mm 3 mps 769 mmHg 36%
    20:00 -2°C° 0 mm 3 mps 769 mmHg 37%
    21:00 -2°C° 0 mm 2 mps 769 mmHg 38%
    22:00 -2°C° 0 mm 2 mps 770 mmHg 39%
    23:00 -3°C° 0 mm 2 mps 770 mmHg 39%

    Tomorrow, 24 February, Sunday

    Time Temperature Precipitation Wind Pressure Humidity
    00:00 -3°C° 0 mm 2 mps 770 mmHg 40%
    01:00 -3°C° 0 mm 2 mps 770 mmHg 41%
    02:00 -3°C° 0 mm 2 mps 770 mmHg 41%
    03:00 -3°C° 0 mm 2 mps 769 mmHg 41%
    04:00 -3°C° 0 mm 2 mps 769 mmHg 42%
    05:00 -1°C° 0 mm 1 mps 769 mmHg 42%
    06:00 -1°C° 0 mm 1 mps 769 mmHg 42%
    07:00 -1°C° 0 mm 1 mps 769 mmHg 41%
    08:00 0°C° 0 mm 1 mps 769 mmHg 37%
    09:00 +1°C° 0 mm 1 mps 769 mmHg 32%
    10:00 +2°C° 0 mm 2 mps 769 mmHg 27%
    11:00 +3°C° 0 mm 2 mps 769 mmHg 26%
    12:00 +4°C° 0 mm 2 mps 768 mmHg 24%
    13:00 +5°C° 0 mm 2 mps 768 mmHg 22%
    14:00 +5°C° 0 mm 2 mps 768 mmHg 23%
    15:00 +5°C° 0 mm 2 mps 767 mmHg 24%
    16:00 +5°C° 0 mm 2 mps 767 mmHg 25%
    17:00 +4°C° 0 mm 2 mps 767 mmHg 29%
    18:00 +2°C° 0 mm 2 mps 767 mmHg 33%
    19:00 +1°C° 0 mm 2 mps 767 mmHg 38%
    20:00 +2°C° 0 mm 1 mps 767 mmHg 38%
    21:00 +2°C° 0 mm 1 mps 767 mmHg 39%
    22:00 +1°C° 0 mm 1 mps 767 mmHg 40%
    23:00 +1°C° 0 mm 1 mps 767 mmHg 41%

    Day after tomorrow, 25 February, Monday

    Time Temperature Precipitation Wind Pressure Humidity
    00:00 +1°C° 0 mm 1 mps 767 mmHg 42%
    01:00 +1°C° 0 mm 1 mps 767 mmHg 42%
    02:00 +1°C° 0 mm 1 mps 767 mmHg 45%
    03:00 +1°C° 0 mm 1 mps 767 mmHg 47%
    04:00 +1°C° 0 mm 1 mps 766 mmHg 49%
    05:00 +1°C° 0 mm 1 mps 766 mmHg 52%
    06:00 +1°C° 0 mm 1 mps 766 mmHg 55%
    07:00 +1°C° 0 mm 1 mps 766 mmHg 57%
    08:00 +2°C° 0 mm 2 mps 767 mmHg 52%
    09:00 +4°C° 0 mm 2 mps 767 mmHg 48%
    10:00 +5°C° 0 mm 2 mps 767 mmHg 43%
    11:00 +6°C° 0 mm 2 mps 767 mmHg 41%
    12:00 +7°C° 0 mm 2 mps 766 mmHg 38%
    13:00 +10°C° 0 mm 1 mps 766 mmHg 36%
    14:00 +10°C° 0 mm 1 mps 766 mmHg 37%
    15:00 +10°C° 0 mm 1 mps 766 mmHg 38%
    16:00 +10°C° 0 mm 1 mps 765 mmHg 39%
    17:00 +9°C° 0 mm 1 mps 765 mmHg 44%
    18:00 +8°C° 0 mm 1 mps 765 mmHg 48%
    19:00 +7°C° 0 mm 1 mps 765 mmHg 53%
    20:00 +6°C° 0 mm 1 mps 765 mmHg 56%
    21:00 +6°C° 0 mm 1 mps 765 mmHg 58%
    22:00 +4°C° 0 mm 2 mps 765 mmHg 61%
    23:00 +4°C° 0 mm 2 mps 765 mmHg 66%

    26 February, Tuesday

    Time Temperature Precipitation Wind Pressure Humidity
    00:00 +4°C° 0 mm 2 mps 764 mmHg 71%
    01:00 +3°C° 0 mm 3 mps 764 mmHg 77%
    02:00 +3°C° 0 mm 3 mps 764 mmHg 78%
    03:00 +2°C° 0 mm 3 mps 764 mmHg 79%
    04:00 +2°C° 0 mm 3 mps 763 mmHg 80%
    05:00 +2°C° 0 mm 3 mps 763 mmHg 79%
    06:00 +2°C° 0 mm 3 mps 763 mmHg 78%
    07:00 +2°C° 0 mm 3 mps 763 mmHg 77%
    08:00 +4°C° 0 mm 4 mps 763 mmHg 67%
    09:00 +7°C° 0 mm 6 mps 763 mmHg 57%
    10:00 +9°C° 0 mm 7 mps 762 mmHg 48%
    11:00 +10°C° 0 mm 7 mps 762 mmHg 44%
    12:00 +11°C° 0 mm 7 mps 761 mmHg 40%
    13:00 +12°C° 0 mm 7 mps 761 mmHg 37%
    14:00 +14°C° 0 mm 7 mps 760 mmHg 40%
    15:00 +14°C° 0 mm 7 mps 760 mmHg 43%
    16:00 +14°C° 0 mm 7 mps 759 mmHg 46%
    17:00 +12°C° 0 mm 7 mps 759 mmHg 49%
    18:00 +11°C° 0 mm 7 mps 759 mmHg 51%
    19:00 +11°C° 0 mm 7 mps 759 mmHg 53%
    20:00 +10°C° 0 mm 7 mps 760 mmHg 54%
    21:00 +10°C° 0 mm 8 mps 760 mmHg 55%
    22:00 +9°C° 0 mm 8 mps 760 mmHg 56%
    23:00 +9°C° 0 mm 8 mps 760 mmHg 59%

    27 February, Wednesday

    Time Temperature Precipitation Wind Pressure Humidity
    00:00 +8°C° 0 mm 7 mps 761 mmHg 62%
    01:00 +7°C° 0 mm 6 mps 761 mmHg 64%
    02:00 +7°C° 0 mm 6 mps 761 mmHg 67%
    03:00 +5°C° 0 mm 6 mps 761 mmHg 70%
    04:00 +5°C° 0 mm 5 mps 761 mmHg 73%
    05:00 +5°C° 0 mm 5 mps 761 mmHg 74%
    06:00 +5°C° 0 mm 4 mps 762 mmHg 76%
    07:00 +4°C° 0 mm 4 mps 762 mmHg 78%
    08:00 +6°C° 0 mm 4 mps 762 mmHg 69%
    09:00 +7°C° 0 mm 5 mps 762 mmHg 59%
    10:00 +9°C° 0 mm 5 mps 762 mmHg 50%
    11:00 +10°C° 0 mm 5 mps 762 mmHg 46%
    12:00 +12°C° 0 mm 5 mps 761 mmHg 42%
    13:00 +13°C° 0 mm 5 mps 761 mmHg 38%
    14:00 +14°C° 0 mm 4 mps 760 mmHg 39%
    15:00 +14°C° 0 mm 3 mps 760 mmHg 40%
    16:00 +14°C° 0 mm 3 mps 759 mmHg 41%
    17:00 +14°C° 0 mm 2 mps 759 mmHg 47%
    18:00 +12°C° 0 mm 2 mps 759 mmHg 53%
    19:00 +11°C° 0 mm 1 mps 759 mmHg 59%
    20:00 +11°C° 0 mm 1 mps 759 mmHg 62%
    21:00 +9°C° 0 mm 2 mps 759 mmHg 65%
    22:00 +9°C° 0 mm 2 mps 758 mmHg 68%
    23:00 +8°C° 0 mm 2 mps 758 mmHg 71%

    28 February, Thursday

    Time Temperature Precipitation Wind Pressure Humidity
    00:00 +8°C° 0 mm 2 mps 758 mmHg 73%
    01:00 +7°C° 0 mm 2 mps 757 mmHg 76%
    02:00 +7°C° 0 mm 2 mps 757 mmHg 78%
    03:00 +7°C° 0 mm 2 mps 756 mmHg 79%
    04:00 +6°C° 0 mm 2 mps 756 mmHg 81%
    05:00 +6°C° 0 mm 2 mps 756 mmHg 82%
    06:00 +6°C° 0 mm 2 mps 755 mmHg 83%
    07:00 +6°C° 0 mm 2 mps 755 mmHg 84%
    08:00 +8°C° 0 mm 2 mps 755 mmHg 74%
    09:00 +10°C° 0 mm 2 mps 755 mmHg 65%
    10:00 +13°C° 0 mm 2 mps 754 mmHg 55%
    11:00 +14°C° 0 mm 2 mps 754 mmHg 50%
    12:00 +16°C° 0 mm 2 mps 753 mmHg 44%
    13:00 +17°C° 0 mm 2 mps 753 mmHg 38%
    14:00 +18°C° 0 mm 3 mps 752 mmHg 37%
    15:00 +18°C° 0 mm 3 mps 752 mmHg 36%
    16:00 +19°C° 0 mm 4 mps 752 mmHg 35%
    17:00 +17°C° 0 mm 4 mps 752 mmHg 40%
    18:00 +15°C° 0 mm 4 mps 752 mmHg 45%
    19:00 +13°C° 0 mm 4 mps 752 mmHg 51%
    20:00 +12°C° 0 mm 4 mps 753 mmHg 55%
    21:00 +10°C° 0 mm 5 mps 753 mmHg 60%
    22:00 +10°C° 0 mm 5 mps 754 mmHg 65%
    23:00 +9°C° 0 mm 5 mps 754 mmHg 66%
    Show more